COSMOS 1275 DEB, 19026

Orbit data source: Space-Track

COSMOS 1275 DEB, 19026 is space debris in LEO originally from a launch on Thu, 04 Jun 1981 UTC launched from the Plesetsk Missile And Space Complex (PKMTR). Debris objects in space refer to the collection of defunct objects orbiting the Earth. Examples of debris include non-operational satellites, rocket bodies, and fragments generated from explosions, collisions, or faulty payload assembly.

Loading next visibility...
Identifier
19026, 1981-053MD
Orbit
LEO
Country
Flag of CISCIS
Related business
Manufacturer
Unknown
Mission
Spacecraft
Bus & Motor
Unknown
Mass
Unknown
Launch date (UTC)
1981-06-04 (45 years ago)
Launch vehicle
Unknown
Launch site
Plesetsk Missile And Space Complex (PKMTR)
Object type
Payload
Rocket body
Debris
Shape & HBR
Unknown shape, 0.1 m
Radar Cross Section
Small (<0.1 m²)

Expand to show TLE details & history
Last TLE update: 1 day ago

TLE from 1 day ago
0 COSMOS 1275 DEB
1 19026U 81053MD  26171.37010646  .00001145  00000-0  10477-2 0  9991
2 19026  83.1656 138.6980 0116682  87.0657  64.6048 13.79171666 51945
Epoch: 2026-06-20T08:52Z
TLE epoch observation values (Epoch: 2026-06-20T08:52:57.198Z)
Latitude
26.94297°
Longitude
-86.60021°
Altitude
934.18 km
Speed
7.405 km/s
True Right ascension
21h 00m 53s
True Declination
26° 48' 28"
Sunlit
Object was in daylight at epoch
Visualization orbit readout
Latitude
Unknown
Longitude
Unknown
Altitude
Unknown
Speed
Unknown
Apparent Right ascension
Unknown
Apparent Declination
Unknown
Sunlit
N/A
Visualization observer readout
Local Sidereal Time
06:12:47
Azimuth
Unknown
Elevation
Unknown
Doppler factor
Unknown
Orbital elements
Apogee altitude
1,049.629 km
Perigee altitude
878.291 km
Semi-major axis
7,342.097 km
Eccentricity
0.01167
Inclination
83.1656°
RAAN
138.698°
Arg. of periapsis
87.0657°
True anomaly
65.82019°
Mean anomaly
64.6048°
Eccentric anomaly
65.21174°
Mean motion
3.44995 °/min
Orbital period
104.35 mins
BSTAR
0.0010477
Loading maneuver chart data...
Computing Atmospheric mass density...

Documentation

Showing up to 5 results
|